Home > Weather > Anaheim > Past weeks

Flag for U.S.A. Weather for the Past 2 Weeks in Anaheim, California, U.S.A.

Now
58 °F

Clear.


Feels Like: 58 °F
Forecast: 58 / 85 °F
Wind: 5 mph from Northwest

Location: Fullerton Municipal Airport

Current Time: Feb 8, 2016 at 3:13:20 AM

Latest Report: Feb 8, 2016 at 1:53 AM


Visibility: 10 mi

Pressure: 30.10 "Hg

Humidity: 38%

Dew point: 32 °F

Location of AnaheimLocation

Historic Weather in Anaheim — Graph

°F

Anaheim Temperature Yesterday

Maximum temperature yesterday: 89 °F (at 2:53 PM)
Minimum temperature yesterday: 49 °F (at 5:53 AM)
Average temperature yesterday: 68 °F

High & Low Weather Summary for the Past Weeks

 TemperatureHumidityPressure
High89 °F (Feb 7, 2:53 PM)90% (Jan 24, 3:53 AM)30.35 "Hg (Jan 24, 3:53 AM)
Low36 °F (Feb 2, 5:53 AM)8% (Feb 7, 2:53 PM)29.61 "Hg (Jan 31, 2:00 PM)
Average58 °F49%30.12 "Hg
* Reported Jan 24 1:53 AM — Feb 8 1:53 AM, Anaheim, Weather by CustomWeather, © 2016

Note: Actual official high and low records may vary slightly from our data, if they occured in-between our weather recording intervals... More about our weather records

Advertising

Anaheim Weather History for the Previous 24 Hours

 ConditionsComfort  
Time TempWeatherWind HumidityBarometerVisibility
1:53 AM
Mon, Feb 8
58 °FClear.5 mph38%30.10 "Hg10 mi
12:53 AM58 °FClear.No wind38%30.11 "Hg10 mi
11:53 PM
Sun, Feb 7
61 °FClear.No wind31%30.11 "Hg10 mi
10:53 PM63 °FClear.No wind24%30.11 "Hg10 mi
9:53 PM70 °FClear.5 mph16%30.10 "Hg10 mi
8:53 PM65 °FClear.No wind28%30.09 "Hg10 mi
7:53 PM69 °FClear.3 mph21%30.09 "Hg10 mi
6:53 PM74 °FClear.3 mph16%30.08 "Hg10 mi
5:53 PM76 °FClear.No wind16%30.07 "Hg10 mi
4:53 PM83 °FSunny.6 mph12%30.05 "Hg10 mi
3:53 PM88 °FSunny.5 mph9%30.04 "Hg10 mi
2:53 PM89 °FSunny.3 mph8%30.04 "Hg10 mi
1:53 PM88 °FSunny.3 mph9%30.05 "Hg10 mi
12:53 PM86 °FSunny.6 mph11%30.07 "Hg10 mi
11:53 AM83 °FSunny.3 mph12%30.10 "Hg10 mi
10:53 AM79 °FSunny.3 mph15%30.12 "Hg10 mi
9:53 AM76 °FSunny.No wind22%30.13 "Hg10 mi
8:53 AM69 °FSunny.No wind24%30.13 "Hg10 mi
7:53 AM59 °FSunny.3 mph31%30.12 "Hg10 mi
6:53 AM49 °FSunny.No wind48%30.11 "Hg10 mi
5:53 AM49 °FClear.No wind46%30.10 "Hg10 mi
4:53 AM50 °FClear.No wind46%30.11 "Hg10 mi
3:53 AM50 °FClear.No wind48%30.11 "Hg10 mi
Weather by CustomWeather, © 2016

See weather overviewHow to use our weather pages